Date String (YYYY-MM-DD hh:mm:ss) UTC,Instrument flags,Ambient pressure (hPa),Sample flow (lpm),Bypass flow (lpm),Sample temperature (°C),Ambient temperature (°C),ASC tube jacket temperature (°C),LED temperature (°C),Box temperature (°C),Sample RH (%),Span deviation,Mass concentration (μg/m³),Mass concentration (μg/m³),Mass concentration (μg/m³)
DateTimeUTC,F1_M11,P_M11,Q1_M11,Q2_M11,T1_M11,T2_M11,T3_M11,T4_M11,T5_M11,U1_M11,ZSPAN_M11,X0_M11,X2_M11,X1_M11
2023-01-31 01:00:00,,0826.2,4.98,0.00,22.6,20.8,00.0,31.6,24.2,04.3,0001.0,0013.37,0008.83,0008.08
2023-01-31 01:01:00,,0826.2,5.02,0.00,22.6,20.8,00.0,31.6,24.2,04.3,0001.2,0013.40,0008.83,0008.06
2023-01-31 01:02:00,,0826.1,5.00,0.00,22.5,20.9,00.0,31.5,24.2,04.3,0001.5,0013.17,0008.72,0007.98
2023-01-31 01:03:00,,0826.1,5.01,0.00,22.6,21.6,00.0,31.5,24.4,04.3,0001.6,0013.25,0008.64,0007.87
2023-01-31 01:04:00,,0826.1,4.99,0.00,22.7,22.5,00.0,31.5,24.7,04.2,0002.2,0013.10,0008.53,0007.76
2023-01-31 01:05:00,,0826.2,4.99,0.00,22.8,23.1,00.0,31.5,24.9,04.2,0002.8,0012.97,0008.40,0007.61
2023-01-31 01:06:00,,0826.2,4.99,0.00,22.9,22.7,00.0,31.6,24.9,04.2,0002.6,0012.65,0008.13,0007.34
2023-01-31 01:07:00,,0826.2,5.00,0.00,22.9,22.3,00.0,31.6,24.7,04.2,0002.8,0012.42,0007.85,0007.05
2023-01-31 01:08:00,,0826.1,4.99,0.00,22.8,21.9,00.0,31.6,24.6,04.2,0002.5,0012.56,0007.69,0006.89
2023-01-31 01:09:00,,0826.1,5.00,0.00,22.8,21.6,00.0,31.6,24.5,04.2,0002.3,0012.54,0007.57,0006.80
2023-01-31 01:10:00,,0826.1,4.99,0.00,22.7,21.3,00.0,31.6,24.4,04.2,0002.0,0012.25,0007.48,0006.73
2023-01-31 01:11:00,,0826.1,5.01,0.00,22.7,21.2,00.0,31.6,24.4,04.2,0001.7,0011.81,0007.43,0006.67
2023-01-31 01:12:00,,0826.1,4.99,0.00,22.7,21.0,00.0,31.6,24.3,04.2,0001.4,0012.00,0007.42,0006.63
2023-01-31 01:13:00,,0826.1,5.00,0.00,22.6,20.9,00.0,31.6,24.3,04.2,0001.2,0012.34,0007.38,0006.57
2023-01-31 01:14:00,,0826.1,5.03,0.00,22.6,20.8,00.0,31.6,24.2,04.2,0001.1,0012.49,0007.33,0006.51
2023-01-31 01:15:00,,0826.2,5.00,0.00,22.6,20.7,00.0,31.6,24.2,04.2,0001.0,0012.36,0007.27,0006.46
2023-01-31 01:16:00,,0826.1,5.03,0.00,22.5,20.7,00.0,31.5,24.1,04.2,0000.8,0012.21,0007.17,0006.40
2023-01-31 01:17:00,,0826.1,5.00,0.00,22.5,21.3,00.0,31.5,24.3,04.2,0001.3,0012.15,0007.08,0006.33
2023-01-31 01:18:00,,0826.2,5.00,0.00,22.6,22.2,00.0,31.5,24.6,04.1,0001.1,0012.05,0007.05,0006.30
2023-01-31 01:19:00,,0826.1,5.00,0.00,22.7,22.9,00.0,31.5,24.8,04.1,0000.7,0011.77,0007.07,0006.31
2023-01-31 01:20:00,,0826.2,5.00,0.00,22.8,23.0,00.0,31.5,24.8,04.1,0001.0,0012.01,0007.11,0006.33
2023-01-31 01:21:00,,0826.1,5.01,0.00,22.8,22.5,00.0,31.6,24.7,04.1,0001.1,0012.78,0007.12,0006.35
2023-01-31 01:22:00,,0826.2,5.00,0.00,22.8,22.1,00.0,31.6,24.6,04.1,0001.4,0012.87,0007.13,0006.36
2023-01-31 01:23:00,,0826.2,4.96,0.00,22.8,21.7,00.0,31.6,24.5,04.1,0001.9,0013.00,0007.12,0006.37
2023-01-31 01:24:00,,0826.2,4.97,0.00,22.7,21.5,00.0,31.6,24.4,04.1,0002.1,0012.69,0007.12,0006.40
2023-01-31 01:25:00,,0826.2,4.99,0.00,22.7,21.2,00.0,31.6,24.3,04.1,0002.3,0013.04,0007.13,0006.42
2023-01-31 01:26:00,,0826.2,5.02,0.00,22.6,21.1,00.0,31.6,24.3,04.1,0002.4,0013.07,0007.15,0006.43
2023-01-31 01:27:00,,0826.2,5.01,0.00,22.6,20.9,00.0,31.6,24.2,04.2,0002.2,0013.24,0007.19,0006.44
2023-01-31 01:28:00,,0826.4,5.00,0.00,22.6,20.8,00.0,31.5,24.2,04.2,0001.9,0013.29,0007.22,0006.45
2023-01-31 01:29:00,,0826.2,5.01,0.00,22.5,20.7,00.0,31.5,24.1,04.2,0002.0,0013.17,0007.17,0006.44
2023-01-31 01:30:00,,0826.3,5.01,0.00,22.5,20.7,00.0,31.5,24.1,04.2,0002.3,0013.05,0007.13,0006.44
2023-01-31 01:31:00,,0826.3,4.99,0.00,22.5,21.4,00.0,31.5,24.3,04.2,0002.0,0012.95,0007.14,0006.44
2023-01-31 01:32:00,,0826.3,5.00,0.00,22.6,22.2,00.0,31.5,24.6,04.2,0002.1,0012.61,0007.19,0006.45
2023-01-31 01:33:00,,0826.2,5.00,0.00,22.7,22.9,00.0,31.5,24.8,04.1,0002.1,0012.75,0007.18,0006.46
2023-01-31 01:34:00,,0826.2,4.97,0.00,22.8,22.8,00.0,31.5,24.8,04.1,0002.1,0012.40,0007.16,0006.45
2023-01-31 01:35:00,,0826.2,5.01,0.00,22.8,22.3,00.0,31.5,24.7,04.1,0001.8,0012.19,0007.14,0006.45
2023-01-31 01:36:00,,0826.2,5.00,0.00,22.8,21.9,00.0,31.6,24.5,04.1,0001.3,0011.46,0007.15,0006.47
2023-01-31 01:37:00,,0826.3,4.99,0.00,22.7,21.6,00.0,31.6,24.4,04.1,0001.2,0011.49,0007.18,0006.49
2023-01-31 01:38:00,,0826.3,5.01,0.00,22.7,21.3,00.0,31.6,24.3,04.1,0000.9,0011.46,0007.21,0006.53
2023-01-31 01:39:00,,0826.2,5.01,0.00,22.6,21.1,00.0,31.6,24.3,04.1,0000.2,0011.75,0007.27,0006.58
2023-01-31 01:40:00,,0826.2,4.99,0.00,22.6,21.0,00.0,31.5,24.3,04.1,-000.0,0012.40,0007.34,0006.63
2023-01-31 01:41:00,,0826.2,4.99,0.00,22.6,20.9,00.0,31.5,24.2,04.1,-000.1,0012.51,0007.42,0006.68
2023-01-31 01:42:00,,0826.3,4.99,0.00,22.5,20.8,00.0,31.5,24.2,04.1,0000.1,0012.25,0007.45,0006.73
2023-01-31 01:43:00,,0826.3,5.01,0.00,22.5,20.7,00.0,31.5,24.1,04.2,0000.4,0011.89,0007.44,0006.77
2023-01-31 01:44:00,,0826.2,5.00,0.00,22.5,21.2,00.0,31.5,24.2,04.2,0000.2,0011.68,0007.49,0006.81
2023-01-31 01:45:00,,0826.3,5.00,0.00,22.6,22.0,00.0,31.4,24.5,04.1,-000.6,0011.82,0007.52,0006.85
2023-01-31 01:46:00,,0826.4,5.00,0.00,22.7,22.7,00.0,31.4,24.7,04.1,-000.8,0011.94,0007.59,0006.89
2023-01-31 01:47:00,,0826.3,4.99,0.00,22.8,22.5,00.0,31.5,24.7,04.1,-000.4,0012.00,0007.63,0006.93
2023-01-31 01:48:00,,0826.3,5.00,0.00,22.7,22.1,00.0,31.5,24.6,04.1,0000.3,0011.96,0007.62,0006.96
2023-01-31 01:49:00,,0826.3,5.02,0.00,22.7,21.7,00.0,31.5,24.4,04.1,0000.3,0011.92,0007.61,0006.98
2023-01-31 01:50:00,,0826.4,4.99,0.00,22.7,21.4,00.0,31.5,24.4,04.1,0001.4,0011.85,0007.59,0006.98
2023-01-31 01:51:00,,0826.4,5.01,0.00,22.6,21.2,00.0,31.5,24.3,04.1,0001.9,0011.48,0007.63,0006.99
2023-01-31 01:52:00,,0826.5,5.01,0.00,22.6,21.0,00.0,31.5,24.3,04.1,0001.5,0011.49,0007.63,0006.98
2023-01-31 01:53:00,,0826.5,4.98,0.00,22.6,20.8,00.0,31.5,24.2,04.1,0001.2,0011.54,0007.65,0006.98
2023-01-31 01:54:00,,0826.5,5.00,0.00,22.5,20.7,00.0,31.5,24.1,04.1,0000.4,0011.83,0007.64,0006.97
2023-01-31 01:55:00,,0826.6,4.99,0.00,22.5,20.6,00.0,31.5,24.1,04.1,0000.4,0011.83,0007.61,0006.97
2023-01-31 01:56:00,,0826.6,5.00,0.00,22.5,21.2,00.0,31.4,24.2,04.2,0000.8,0011.74,0007.62,0006.97
2023-01-31 01:57:00,,0826.5,5.01,0.00,22.6,22.2,00.0,31.4,24.5,04.1,0001.2,0011.82,0007.61,0006.95
2023-01-31 01:58:00,,0826.5,5.01,0.00,22.7,22.9,00.0,31.4,24.7,04.1,0000.9,0012.35,0007.61,0006.92
2023-01-31 01:59:00,,0826.5,5.01,0.00,22.8,22.9,00.0,31.5,24.8,04.1,0000.6,0012.41,0007.61,0006.92
